This demonstration page uses our WeatherBlox Daily Observations layout. Learn more.

Hourly Observations for July 20, 2019

Temp ( °F °C ) Dew Point ( °F °C ) Humidity (%) Winds ( mph kmh ) Pressure ( in mb ) Visibility ( mi km ) Precip ( " mm )
12:15 am 00:15 Clear 82 27.9 68 19.8 61 61 SSE 10 17 29.65 1004 10 16.09344 0 0
12:35 am 00:35 Clear 82 27.5 67 19.7 63 63 S 9 15 29.65 1004 10 16.09344 0 0
12:55 am 00:55 Clear 81 27.1 67 19.7 64 64 S 8 13 29.65 1004 10 16.09344 0 0
1:15 am 01:15 Clear 80 26.7 67 19.7 66 66 S 9 15 29.65 1004 10 16.09344 0 0
1:35 am 01:35 Clear 80 26.5 67 19.6 66 66 S 9 15 29.65 1004 10 16.09344 0 0
1:55 am 01:55 Clear 80 26.4 67 19.6 66 66 SSE 9 15 29.65 1004 10 16.09344 0 0
2:15 am 02:15 Clear 79 26.1 67 19.5 67 67 SSE 7 11 29.65 1004 10 16.09344 0 0
2:35 am 02:35 Clear 77 25.1 67 19.6 72 72 SSE 6 9 29.65 1004 10 16.09344 0 0
2:55 am 02:55 Clear 76 24.6 67 19.4 73 73 SSE 8 13 29.62 1003 10 16.09344 0 0
3:15 am 03:15 Clear 76 24.5 66 19.1 72 72 SSE 9 15 29.62 1003 10 16.09344 0 0
3:35 am 03:35 Clear 76 24.5 66 19 72 72 SSE 8 13 29.62 1003 10 16.09344 0 0
3:55 am 03:55 Clear 75 24.1 66 18.8 72 72 SSE 7 11 29.65 1004 10 16.09344 0 0
4:15 am 04:15 Clear 74 23.6 66 18.7 74 74 SSE 7 11 29.65 1004 10 16.09344 0 0
4:35 am 04:35 Clear 74 23.2 65 18.6 75 75 S 8 13 29.65 1004 10 16.09344 0 0
4:55 am 04:55 Clear 74 23.1 65 18.5 75 75 SSE 9 15 29.65 1004 10 16.09344 0 0
5:15 am 05:15 Clear 73 22.6 65 18.5 78 78 SSE 8 13 29.65 1004 10 16.09344 0 0
5:35 am 05:35 Clear 73 22.7 65 18.5 77 77 S 8 13 29.65 1004 10 16.09344 0 0
5:55 am 05:55 Clear 73 22.5 65 18.5 78 78 SSE 7 11 29.65 1004 10 16.09344 0 0
6:15 am 06:15 Clear 73 22.5 65 18.5 78 78 SSE 8 13 29.65 1004 10 16.09344 0 0
6:35 am 06:35 Sunny 73 22.8 65 18.3 76 76 SSE 8 13 29.65 1004 10 16.09344 0 0
6:55 am 06:55 Sunny 71 21.8 65 18.5 82 82 SSE 6 9 29.65 1004 10 16.09344 0 0
7:15 am 07:15 Sunny 71 21.8 66 18.7 83 83 SSE 7 11 29.65 1004 10 16.09344 0 0
7:35 am 07:35 Sunny 72 22.4 66 19 81 81 SSE 7 11 29.65 1004 10 16.09344 0 0
7:55 am 07:55 Sunny 75 23.7 67 19.2 76 76 S 8 13 29.65 1004 10 16.09344 0 0
8:15 am 08:15 Sunny 76 24.5 67 19.5 74 74 SSE 6 9 29.62 1003 10 16.09344 0 0
8:35 am 08:35 Sunny 77 25.2 67 19.5 71 71 S 8 13 29.65 1004 10 16.09344 0 0
8:55 am 08:55 Sunny 79 25.9 67 19.7 69 69 S 7 11 29.65 1004 10 16.09344 0 0
9:15 am 09:15 Sunny 80 26.5 68 20 68 68 S 9 15 29.65 1004 10 16.09344 0 0
9:35 am 09:35 Sunny 81 27.4 68 20 64 64 S 9 15 29.65 1004 10 16.09344 0 0
9:55 am 09:55 Sunny 82 28 68 20.1 62 62 S 9 15 29.65 1004 10 16.09344 0 0
10:15 am 10:15 Sunny 83 28.1 68 20 61 61 S 10 17 29.65 1004 10 16.09344 0 0
10:35 am 10:35 Sunny 82 27.8 68 20.2 63 63 S 7 11 29.65 1004 10 16.09344 0 0
10:55 am 10:55 Sunny 84 28.8 69 20.6 61 61 SW 8 13 29.62 1003 10 16.09344 0 0
11:15 am 11:15 Sunny 84 28.9 69 20.3 60 60 W 3 6 29.62 1003 10 16.09344 0 0
11:35 am 11:35 Sunny 85 29.5 69 20.8 60 60 WNW 6 9 29.62 1003 10 16.09344 0 0
11:55 am 11:55 Sunny 85 29.2 71 21.8 64 64 NNW 8 13 29.62 1003 10 16.09344 0 0
12:15 pm 12:15 Sunny 85 29.2 71 21.9 65 65 N 6 9 29.65 1004 10 16.09344 0 0
12:35 pm 12:35 Sunny 85 29.5 72 22 64 64 N 9 15 29.65 1004 10 16.09344 0 0
12:55 pm 12:55 undefined 86 29.9 73 22.9 66 66 undefined N/A N/A N/A 0 0
1:15 pm 13:15 Sunny 85 29.7 73 22.7 66 66 NE 8 13 29.65 1004 10 16.09344 0 0
1:35 pm 13:35 Partly Cloudy 85 29.7 72 22.2 64 64 N 12 19 29.68 1005 10 16.09344 0 0
1:55 pm 13:55 Partly Cloudy with Nearby Thunderstorms 84 29 73 22.6 68 68 NNW 8 13 29.74 1007 10 16.09344 0 0
2:15 pm 14:15 Partly Cloudy with Rain 82 27.6 72 22.4 73 73 ENE 28 44 29.65 1004 7 11.265408 0 0
2:35 pm 14:35 Partly Cloudy 82 28 74 23.2 75 75 N 7 11 29.68 1005 10 16.09344 0 0
2:55 pm 14:55 Sunny 83 28.3 74 23.1 73 73 N 12 19 29.71 1006 10 16.09344 0 0
3:15 pm 15:15 Partly Cloudy 83 28.5 74 23.6 75 75 N 14 22 29.74 1007 10 16.09344 0 0
3:35 pm 15:35 Partly Cloudy 84 29.1 74 23.4 71 71 NE 16 26 29.74 1007 10 16.09344 0 0
3:55 pm 15:55 Sunny 85 29.2 74 23.6 72 72 ENE 15 24 29.74 1007 10 16.09344 0 0
4:15 pm 16:15 Sunny 84 29.1 75 23.8 73 73 ENE 15 24 29.68 1005 10 16.09344 0 0
4:35 pm 16:35 Sunny 83 28.5 75 23.7 75 75 E 14 22 29.71 1006 10 16.09344 0 0
4:55 pm 16:55 Sunny 85 29.5 76 24.2 73 73 E 12 19 29.71 1006 10 16.09344 0 0
5:15 pm 17:15 Sunny 85 29.5 75 23.9 72 72 NE 15 24 29.71 1006 10 16.09344 0 0
5:35 pm 17:35 Sunny 84 29.1 75 23.7 73 73 NE 14 22 29.74 1007 10 16.09344 0 0
5:55 pm 17:55 Sunny 84 29 75 23.9 74 74 NE 14 22 29.74 1007 10 16.09344 0 0
6:15 pm 18:15 Sunny 84 29 75 23.7 73 73 ENE 15 24 29.74 1007 10 16.09344 0 0
6:35 pm 18:35 Sunny 84 28.7 75 23.7 74 74 NE 16 26 29.71 1006 10 16.09344 0 0
6:55 pm 18:55 Sunny 83 28.6 75 24 76 76 ENE 16 26 29.71 1006 10 16.09344 0 0
7:15 pm 19:15 Sunny 82 28 74 23.6 77 77 NE 13 20 29.71 1006 10 16.09344 0 0
7:35 pm 19:35 Sunny 82 27.5 75 23.8 80 80 NE 14 22 29.74 1007 10 16.09344 0 0
7:55 pm 19:55 Partly Cloudy 81 27.2 75 24 83 83 NNE 15 24 29.74 1007 10 16.09344 0 0
8:15 pm 20:15 Partly Cloudy 80 26.5 74 23.6 84 84 NNE 12 19 29.74 1007 10 16.09344 0 0
8:35 pm 20:35 Sunny 79 25.9 75 23.7 88 88 NNE 10 17 29.77 1008 10 16.09344 0 0
8:55 pm 20:55 Partly Cloudy 78 25.6 74 23.5 88 88 NNE 13 20 29.8 1009 10 16.09344 0 0
9:15 pm 21:15 Cloudy 74 23.1 69 20.3 84 84 NNE 14 22 29.8 1009 10 16.09344 0 0
9:35 pm 21:35 Cloudy 73 22.5 68 20 86 86 NNE 16 26 29.8 1009 10 16.09344 0 0
9:55 pm 21:55 Cloudy 72 22.2 68 19.8 86 86 NNE 16 26 29.85 1011 10 16.09344 0 0
10:15 pm 22:15 Cloudy 72 22.3 68 20 87 87 NE 18 30 29.85 1011 10 16.09344 0 0
10:35 pm 22:35 Cloudy 73 22.5 68 20.2 87 87 NE 17 28 29.83 1010 10 16.09344 0 0
10:55 pm 22:55 Cloudy 73 22.5 69 20.4 88 88 NE 16 26 29.88 1012 10 16.09344 0 0
11:10 pm 23:10 Cloudy 73 22.5 69 20.5 89 89 NE 15 24 29.88 1012 10 16.09344 0 0
11:35 pm 23:35 Cloudy 72 22.2 68 20.2 89 89 NE 16 26 29.85 1011 10 16.09344 0 0
11:55 pm 23:55 Cloudy 72 22.1 68 20.1 88 88 NE 14 22 29.88 1012 10 16.09344 0 0

Powered by AerisWeather